Regional Weather Roundup
Issued by NWS Newport/Morehead, NC

Current Version | Previous Version | Text Only | Print | Product List | Glossary Off
Versions: 1 2 3 4 5 6 7 8 9 10 11 12 13 14 15 16 17 18 19 20 21 22 23 24 25 26 27 28 29 30 31 32 33 34 35 36 37 38 39 40 41 42 43 44 45 46 47 48 49 50
000 ASUS42 KMHX 240325 RWRMHX WEATHER ROUNDUP FOR EASTERN NORTH CAROLINA NATIONAL WEATHER SERVICE NEWPORT/MOREHEAD CITY NC 1100 PM EDT WED AUG 23 2017 NOTE: "FAIR" INDICATES FEW OR NO CLOUDS BELOW 12,000 FEET WITH NO SIGNIFICANT WEATHER AND/OR OBSTRUCTIONS TO VISIBILITY NCZ015>017-031-032-045>047-102-103-240400- NORTH COAST CITY SKY/WX TMP DP RH WIND PRES REMARKS EDENTON CLOUDY 75 73 93 CALM 29.89S ELIZABETH CITY CLOUDY 73 73 100 SW5 29.88R KITTY HAWK DRIZZLE 74 74 100 CALM 29.85F MANTEO NOT AVBL $$ NCZ045>047-081-094-103-104-240400- CENTRAL COAST CITY SKY/WX TMP DP RH WIND PRES REMARKS FRISCO CLOUDY 81 78 91 SW8 29.87R $$ NCZ095-097-098-100-101-240400- SOUTHERN COAST CITY SKY/WX TMP DP RH WIND PRES REMARKS BEAUFORT RAIN 74 74 100 NW20 29.89F FOG CEDAR ISLAND NOT AVBL JACKSONVILLE TSTM 72 72 100 SW8 29.90F FOG PINEY ISLAND N/A N/A N/A N/A W10 29.87S WILMINGTON TSTM 72 71 97 CALM 29.90F $$ NCZ011>013-027>030-043-044-078>080-089-090>093-098-240400- COASTAL PLAIN CITY SKY/WX TMP DP RH WIND PRES REMARKS AHOSKIE N/A 72 72 100 CALM 29.89F FOG CLINTON CLOUDY 72 72 100 S3 29.90R ELIZABETHTOWN NOT AVBL GOLDSBORO LGT RAIN 74 71 89 SW6 29.88S GREENVILLE DRIZZLE 72 72 100 S9 29.89F HAVELOCK TSTM 72 70 93 E8 29.90F FOG KENANSVILLE LGT RAIN 72 70 94 S5 29.89S KINSTON DRIZZLE 73 72 95 S8 29.89F NEW BERN LGT RAIN 72 72 100 S7 29.88F FOG RICHLANDS TSTM 71 70 96 SW7 29.91F ROCKY MOUNT LGT RAIN 73 73 100 CALM 29.89R WASHINGTON LGT RAIN 72 70 95 SW3 29.88R WHITEVILLE LGT RAIN 73 72 96 S6 29.89R $$ AMZ130-135-150-152-154-156-158-170-250-252-270-ANZ085-086-088-633-658-670-240400- MARINE OBSERVATIONS STATION/POSITION TIME TEMP WIND PRES WAVE SWELL AIR SEA DIR/SP/G HT/PER HT/PER (UTC) (F) (DEG/KT/KT) (MB) (FT/S) (FT/S) CHESAPEAKE LIGHT NOT AVBL 64 E VA BEACH 0250 79 80 40/ 8/ 10 1011.1 3/ 9 3/ 9 DUCK 0300 77 65 330/ 5/ 6 1010.7 2 E DUCK 0200 74 N/A 2/ 9 OREGON INLET 0300 75 84 40/ 3/ 4 1011.0 13E OREGON INLT 0248 80 N/A 3/ 5 3/ 5 HATTERAS CG 0300 80 82 240/ 5/ 7 1011.2 DIAMOND BUOY 0250 84 84 220/ 16/ 17 1011.0 4/ 5 2/ 9 CAPE LOOKOUT 0300 75 310/ 16/ 20 1011.6 BEAUFORT LAB 0300 75 81 340/ 10/ 19 1011.4 30 SE NEW RVR IN 0308 76 84 320/ 17/ 21 1012.3 30 SE NEW RVR IN 0243 83 N/A 4/ 9 2/14 27 SE WRIGHTSVLE 0308 76 84 310/ 16/ 21 1012.4 5 SE WRIGHTSVLE 0308 75 84 350/ 6/ 12 1012.4 225 S CAPE HAT 0250 84 85 230/ 10/ 12 1013.0 3/ 9 2/ 9 41 SE CHARLESTON 0310 84 84 210/ 17/ 21 1011.1 $$

USA.gov is the U.S. government's official web portal to all federal, state and local government web resources and services.